Location: Castifao
(42.5040°N, 9.1124°E)
Time: 20:16:49
(UTC+00:00)

SWAS - Pass Details

Date: 23 January 2020
Orbit: 580 x 591 km, 69.9° (Epoch: 19 February)

Event Time Altitude Azimuth Distance (km) Brightness Sun altitude
Rises 18:06:57 0° 194° (SSW) 2,809 8.3 -18.7°
Reaches altitude 10° 18:09:11 10° 190° (S) 1,913 7.3 -19.1°
Maximum altitude 18:13:24 57° 112° (ESE) 696 4.5 -19.9°
Enters shadow 18:13:59 52° 77° (ENE) 740 4.5 -20.0°
